sat.trackr.live / text

‹ back to catalog

RESURS-DK 1

NORAD 29228 · 2006-021A

PAYLOAD ACTIVE UNKNOWN

§ Identity

Operator
Country
CIS
Launch date
2006-06-15
Launch site
TYMSC
Launch vehicle
Mass (kg)
RCS (m²)
8.77

Purposes: earth_obs

External: N2YO · Heavens-Above · Gunter

§ Orbital elements

Epoch: 2026-09-19T22:47:17.381472Z

Period
95.14 min
Inclination
69.9300°
Eccentricity
0.0005145
Mean motion
15.13526358 rev/d
Perigee alt
521.9 km
Apogee alt
529.0 km
Semi-major
6,903.6 km
B*
8.4758e-5
RAAN
94.1877°
Arg perigee
211.1895°
Mean anomaly
148.8967°
Rev number
11,691

§ Raw data

RESURS-DK 11 29228U 06021A   26262.94950673  .00001413  00000+0  84758-4 0  99972 29228  69.9300  94.1877 0005145 211.1895 148.8967 15.13526358116910

JSON: /api/v1/satellites/29228 · /tle

For live sub-satellite position, see the globe view (requires WebGL).

§ Visibility from observer

Set your observer location to see the next 7 days of passes ≥ 10°. The values pass through the URL so the page stays shareable.

No JS? Fill the form by hand. The geolocation button needs JavaScript.